Regional Weather Roundup
Issued by NWS Newport/Morehead, NC

Current Version | Previous Version | Graphics & Text | Print | Product List | Glossary On
Versions: 1 2 3 4 5 6 7 8 9 10 11 12 13 14 15 16 17 18 19 20 21 22 23 24 25 26 27 28 29 30 31 32 33 34 35 36 37 38 39 40 41 42 43 44 45 46 47 48 49 50
869 ASUS42 KMHX 200713 RWRMHX WEATHER ROUNDUP FOR EASTERN NORTH CAROLINA NATIONAL WEATHER SERVICE NEWPORT/MOREHEAD CITY NC 300 AM EDT WED SEP 20 2017 NOTE: "FAIR" INDICATES FEW OR NO CLOUDS BELOW 12,000 FEET WITH NO SIGNIFICANT WEATHER AND/OR OBSTRUCTIONS TO VISIBILITY NCZ015>017-031-032-045>047-102-103-200800- NORTH COAST CITY SKY/WX TMP DP RH WIND PRES REMARKS EDENTON CLEAR 72 67 83 CALM 29.91F ELIZABETH CITY CLOUDY 70 69 97 W8 29.89F KITTY HAWK CLOUDY 72 66 82 CALM 29.87S MANTEO CLOUDY 73 68 84 NW8 29.89S $$ NCZ045>047-081-094-103-104-200800- CENTRAL COAST CITY SKY/WX TMP DP RH WIND PRES REMARKS FRISCO CLOUDY 75 70 84 VRB6 29.89F $$ NCZ095-097-098-100-101-200800- SOUTHERN COAST CITY SKY/WX TMP DP RH WIND PRES REMARKS BEAUFORT CLEAR 71 68 90 W3 29.92F CEDAR ISLAND NOT AVBL JACKSONVILLE CLEAR 68 67 96 W6 29.94S PINEY ISLAND N/A N/A N/A N/A W7 29.91F WILMINGTON CLEAR 68 67 96 SW3 29.95S $$ NCZ011>013-027>030-043-044-078>080-089-090>093-098-200800- COASTAL PLAIN CITY SKY/WX TMP DP RH WIND PRES REMARKS AHOSKIE N/A 65 65 99 CALM 29.93S CLINTON CLEAR 65 65 100 CALM 29.96F ELIZABETHTOWN NOT AVBL GOLDSBORO CLEAR 67 67 100 CALM 29.93F GREENVILLE CLEAR 64 64 100 CALM 29.96S HAVELOCK CLEAR 69 68 96 SW3 29.94S KENANSVILLE CLEAR 63 63 100 CALM 29.95F FOG KINSTON CLEAR 67 65 91 CALM 29.95S NEW BERN CLEAR 68 67 96 CALM 29.94S RICHLANDS CLEAR 64 63 96 CALM 29.95S ROCKY MOUNT CLEAR 64 64 100 CALM 29.95S WASHINGTON CLEAR 67 65 94 CALM 29.93F WHITEVILLE CLEAR 67 66 96 CALM 29.96S $$ AMZ130-135-150-152-154-156-158-170-250-252-270-ANZ085-086-088-633-658-670-200800- MARINE OBSERVATIONS STATION/POSITION TIME TEMP WIND PRES WAVE SWELL AIR SEA DIR/SP/G HT/PER HT/PER (UTC) (F) (DEG/KT/KT) (MB) (FT/S) (FT/S) CHESAPEAKE LIGHT NOT AVBL 64 E VA BEACH 0650 70 70 310/ 17/ 19 1010.0 11/11 10/11 DUCK 0648 74 290/ 10/ 12 1011.3 2 E DUCK 0630 74 N/A 7/11 3/11 OREGON INLET 0636 74 280/ 12/ 16 1011.6 13E OREGON INLT 0648 74 N/A 9/11 10/11 HATTERAS CG 0648 75 290/ 13/ 15 1012.2 DIAMOND BUOY 0650 75 74 260/ 10/ 14 1012.1 6/11 7/11 CAPE LOOKOUT 0700 75 270/ 6/ 7 1012.9 BEAUFORT LAB 0648 74 300/ 5/ 6 1012.8 30 SE NEW RVR IN 0608 79 270/ 6/ 8 1013.7 30 SE NEW RVR IN NOT AVBL 27 SE WRIGHTSVLE 0608 79 79 270/ 6/ 10 1014.1 5 SE WRIGHTSVLE NOT AVBL 225 S CAPE HAT 0650 79 79 270/ 6/ 8 1014.5 8/11 8/11 41 SE CHARLESTON 0700 80 82 240/ 6/ 10 1014.6 $$

USA.gov is the U.S. government's official web portal to all federal, state and local government web resources and services.